Location: Paimpol
(48.7798°N, 3.0488°W)
Time: 13:41:39
(UTC+01:00)

ISS - Visible Passes

Search period start: 16 January 2026 00:00
Search period end: 26 January 2026 00:00
Orbit: 413 x 424 km, 51.6° (Epoch: 16 January)

Date Brightness Start Highest point End Pass type
(mag) Time Alt. Az. Time Alt. Az. Time Alt. Az.
16 Jan -3.8 19:24:34 10° WSW 19:27:55 79° SSE 19:28:48 45° ENE visible
16 Jan -0.2 21:01:34 10° W 21:01:45 11° W 21:01:45 11° W visible
17 Jan -3.4 18:36:55 10° SW 18:40:11 56° SSE 18:43:02 13° ENE visible
17 Jan -2.3 20:13:43 10° W 20:15:58 36° WNW 20:15:58 36° WNW visible
18 Jan -3.6 19:25:51 10° W 19:29:11 64° NNW 19:30:09 40° NE visible
18 Jan -0.3 21:02:56 10° WNW 21:03:06 11° WNW 21:03:06 11° WNW visible
19 Jan -3.7 18:38:01 10° WSW 18:41:20 79° NNW 18:44:18 13° ENE visible
19 Jan -2.2 20:15:05 10° WNW 20:17:15 33° NW 20:17:15 33° NW visible
20 Jan -3.3 19:27:12 10° W 19:30:27 50° N 19:31:23 37° NE visible
20 Jan -0.3 21:04:09 10° WNW 21:04:20 11° WNW 21:04:20 11° WNW visible
21 Jan -3.4 18:39:16 10° W 18:42:33 55° N 18:45:31 12° ENE visible
21 Jan -2.3 20:16:18 10° WNW 20:18:28 35° NW 20:18:28 35° NW visible
22 Jan -3.5 19:28:25 10° WNW 19:31:43 52° N 19:32:36 38° ENE visible
22 Jan -0.3 21:05:15 10° WNW 21:05:33 12° WNW 21:05:33 12° WNW visible
23 Jan -3.3 18:40:29 10° WNW 18:43:46 49° N 18:46:46 12° ENE visible
23 Jan -2.6 20:17:22 10° WNW 20:19:43 42° WNW 20:19:43 42° WNW visible
24 Jan -3.8 19:29:28 10° WNW 19:32:49 71° NNE 19:33:56 38° E visible
24 Jan -0.4 21:06:26 10° W 21:06:53 13° W 21:06:53 13° W visible
25 Jan -3.6 18:41:33 10° WNW 18:44:52 58° N 18:48:11 10° E visible
25 Jan -2.6 20:18:24 10° WNW 20:21:10 42° WSW 20:21:10 42° WSW visible
